• MPC Preparation (Info)

  • MPEC 2016-V49 : 2016 VO1

    The following Minor Planet Electronic Circular may be linked-to from your own Web pages, but must not otherwise be redistributed electronically.

    A form allowing access to any MPEC is at the bottom of this page.


    Read MPEC 2016-V48 Read MPEC 2016-V50


    M.P.E.C. 2016-V49                                Issued 2016 Nov. 7, 11:44 UT
    
         The Minor Planet Electronic Circulars contain information on unusual
             minor planets and routine data on comets.  They are published
        on behalf of Division F of the International Astronomical Union by the
              Minor Planet Center, Smithsonian Astrophysical Observatory,
                              Cambridge, MA 02138, U.S.A.
    
                 Prepared using the Tamkin Foundation Computer Network
    
                                  MPC@CFA.HARVARD.EDU
                URL https://www.minorplanetcenter.net/    ISSN 1523-6714
    
                                       2016 VO1
    
    Observations:
         K16V01O* C2016 11 05.20932 01 33 15.08 -00 35 34.3          20.1 VoEV049691
         K16V01O  C2016 11 05.21632 01 33 13.90 -00 35 32.2          20.6 VoEV049691
         K16V01O  C2016 11 05.22334 01 33 12.77 -00 35 28.4          20.6 VoEV049691
         K16V01O KC2016 11 05.31581 01 32 57.62 -00 34 52.0          20.9 RoEV049291
         K16V01O KC2016 11 05.31753 01 32 57.28 -00 34 51.0          21.0 RoEV049291
         K16V01O KC2016 11 05.31926 01 32 57.03 -00 34 50.1          20.7 RoEV049291
         K16V01O KC2016 11 05.40782 01 32 42.94 -00 34 14.7          20.3 RoEV049291
         K16V01O KC2016 11 05.41130 01 32 42.38 -00 34 13.5          20.3 RoEV049291
         K16V01O KC2016 11 05.41476 01 32 41.85 -00 34 12.4          20.3 RoEV049291
         K16V01O KC2016 11 06.09088 01 31 09.90 -00 29 41.9                oEV049291
         K16V01O KC2016 11 06.09838 01 31 08.78 -00 29 38.3                oEV049291
         K16V01O KC2016 11 06.10588 01 31 07.69 -00 29 35.6                oEV049291
         K16V01O KC2016 11 06.16901 01 30 57.61 -00 29 14.5          20.3 RqEV049H36
         K16V01O KC2016 11 06.18498 01 30 55.20 -00 29 08.2          20.9 RqEV049H36
         K16V01O KC2016 11 06.20042 01 30 52.91 -00 29 01.6          20.6 RqEV049H36
         K16V01O KC2016 11 06.31316 01 30 36.63 -00 28 12.3          21.4 RoEV049291
         K16V01O KC2016 11 06.31616 01 30 36.17 -00 28 10.9          21.4 RoEV049291
         K16V01O KC2016 11 06.31914 01 30 35.73 -00 28 09.7          21.1 RoEV049291
         K16V01O KC2016 11 07.07884 01 29 00.12 -00 23 00.9                oEV049291
         K16V01O KC2016 11 07.08200 01 28 59.74 -00 23 00.2                oEV049291
         K16V01O KC2016 11 07.29169 01 28 31.03 -00 21 34.9                oEV049291
         K16V01O KC2016 11 07.29468 01 28 30.65 -00 21 33.9                oEV049291
         K16V01O KC2016 11 07.29767 01 28 30.24 -00 21 32.6                oEV049291
    
    Observer details:
    291 LPL/Spacewatch II.  Observer A. F. Tubbiolo.  1.8-m f/2.7 reflector + CCD.
    691 Steward Observatory, Kitt Peak.  Observer A. F. Tubbiolo.  0.9-m f/3
        reflector + CCD.
    H36 Sandlot Observatory, Scranton.  Observer G. Hug.  0.56-m reflector + CCD.
    
    Orbital elements:
    2016 VO1                                                 Earth MOID = 0.0080 AU
    Epoch 2016 July 31.0 TT = JDT 2457600.5                 MPC
    M 356.94237              (2000.0)            P               Q
    n   1.01004984     Peri.  132.67826     -0.14398386     +0.98933659
    a   0.9838016      Node   129.03010     -0.91598458     -0.12484938
    e   0.4301051      Incl.    1.61910     -0.37448750     -0.07500490
    P   0.98           H   23.1           G   0.15           U   8
    Residuals in seconds of arc
    161105 691  0.0   0.0     161105 291  0.0   0.1-    161106 291  0.1-  0.1-
    161105 691  0.4-  0.7-    161106 291  0.2+  0.4-    161106 291  0.1-  0.1-
    161105 691  0.0   0.3+    161106 291  0.1-  0.2+    161107 291  0.2-  0.7+
    161105 291  0.6+  0.1-    161106 291  0.0   0.1-    161107 291  0.4+  0.1+
    161105 291  0.3-  0.2+    161106 H36  0.2-  0.2-    161107 291  0.3-  0.0
    161105 291  0.1+  0.4+    161106 H36  0.4-  0.4-    161107 291  0.1+  0.2-
    161105 291  0.2+  0.4+    161106 H36  0.1+  0.0     161107 291  0.1+  0.1-
    161105 291  0.1-  0.2+    161106 291  0.1+  0.2-
    
    Ephemeris:
    2016 VO1                 a,e,i = 0.98, 0.43, 2                   q = 0.5607
    Date    TT    R. A. (2000) Decl.     Delta      r     Elong.  Phase     V
    2016 10 08    07 22 35.8 -01 57 55   0.06501 0.9932    82.9    93.4    20.5
    ...
    2016 10 23    02 39 35.4 -01 56 41   0.1070  1.0971   162.0    16.3    19.3
    ...
    2016 10 31    01 50 00.7 -01 08 35   0.1599  1.1465   162.9    14.8    20.2
    ...
    2016 11 06    01 31 20.5 -00 29 56   0.2050  1.1807   155.4    20.4    21.0
    2016 11 07    01 29 08.1 -00 23 12   0.2129  1.1862   154.2    21.4    21.2
    2016 11 08    01 27 07.9 -00 16 24   0.2209  1.1916   152.9    22.3    21.3
    ...
    2016 11 14    01 18 35.0 +00 26 17   0.2705  1.2225   145.8    27.1    21.9
    ...
    2016 11 22    01 13 46.5 +01 27 53   0.3411  1.2600   137.4    32.1    22.6
    ...
    2016 12 07    01 16 52.8 +03 37 23   0.4847  1.3185   123.9    38.3    23.7
    
    A. U. Tomatic                (C) Copyright 2016 MPC           M.P.E.C. 2016-V49
    

    Read MPEC 2016-V48 Read MPEC 2016-V50


    MPEC number:

    Enter an MPEC number in one of the following forms:

    • 1997-B01 (the full form)
    • J97B01 (the packed version of the full form)
    • B01 (the abbreviated form)